Location: Newark
(39.0622°N, 106.5590°E)
Time: 00:57:42
(UTC+00:00)

Vanguard 2 Rocket - Pass Details

Date: 28 January 2020
Orbit: 554 x 3327 km, 32.9° (Epoch: 20 February)

Event Time Altitude Azimuth Distance (km) Brightness Sun altitude
Rises 21:22:20 0° 243° (WSW) 2,715 - -31.4°
Reaches altitude 10° 21:24:34 10° 233° (SW) 1,832 - -31.0°
Maximum altitude 21:28:10 33° 167° (SSE) 1,025 - -30.3°
Exits shadow 21:29:09 30° 140° (SE) 1,150 7.7 -30.1°
Drops below altitude 10° 21:32:40 10° 103° (ESE) 2,309 9.9 -29.4°
Sets 21:35:50 0° 94° (E) 3,566 11.2 -28.8°
